When you browse on this site, cookies collect data to enhance your experience and personalize the content and advertising you see.
Visit our Privacy Policy to learn more. By continuing to use the site, you agree to this use of cookies and data.
  • In France
  • List of Countries
  • For 7 days
  • Water Temperature
  • Satellite Maps
  • Weather Map
  • Weather Widgets
  • user-avatar
    Login

    Hourly Weather Darwin

    Today, 17 December, Monday

    Time Temperature Precipitation Wind Pressure Humidity
    00:00 +30°C° 0 mm 4 mps 755 mmHg 84%
    01:00 +30°C° 0 mm 4 mps 754 mmHg 84%
    02:00 +30°C° 0 mm 4 mps 754 mmHg 85%
    03:00 +30°C° 0 mm 4 mps 754 mmHg 86%
    04:00 +30°C° 0 mm 4 mps 754 mmHg 87%
    05:00 +30°C° 0 mm 3 mps 754 mmHg 87%
    06:00 +30°C° 0 mm 3 mps 755 mmHg 87%
    07:00 +31°C° 0 mm 3 mps 755 mmHg 80%
    08:00 +34°C° 0 mm 3 mps 755 mmHg 74%
    09:00 +35°C° 0 mm 4 mps 755 mmHg 67%
    10:00 +36°C° 0 mm 4 mps 755 mmHg 63%
    11:00 +37°C° 0 mm 4 mps 755 mmHg 58%
    12:00 +39°C° 0 mm 5 mps 755 mmHg 53%
    13:00 +39°C° 0.1 mm 5 mps 754 mmHg 55%
    14:00 +37°C° 0.1 mm 5 mps 754 mmHg 58%
    15:00 +37°C° 0.1 mm 5 mps 753 mmHg 61%
    16:00 +36°C° 0 mm 5 mps 753 mmHg 65%
    17:00 +35°C° 0 mm 5 mps 753 mmHg 70%
    18:00 +34°C° 0 mm 5 mps 754 mmHg 74%
    19:00 +33°C° 0 mm 5 mps 754 mmHg 77%
    20:00 +33°C° 0 mm 5 mps 754 mmHg 79%
    21:00 +32°C° 0 mm 4 mps 754 mmHg 82%
    22:00 +32°C° 0 mm 5 mps 754 mmHg 83%
    23:00 +32°C° 0 mm 5 mps 754 mmHg 83%

    Tomorrow, 18 December, Tuesday

    Time Temperature Precipitation Wind Pressure Humidity
    00:00 +32°C° 0 mm 5 mps 754 mmHg 84%
    01:00 +32°C° 0.1 mm 5 mps 754 mmHg 84%
    02:00 +32°C° 0.1 mm 5 mps 754 mmHg 84%
    03:00 +32°C° 0.1 mm 5 mps 754 mmHg 84%
    04:00 +32°C° 0.2 mm 5 mps 754 mmHg 84%
    05:00 +32°C° 0.2 mm 5 mps 755 mmHg 84%
    06:00 +30°C° 0.2 mm 5 mps 755 mmHg 84%
    07:00 +32°C° 0 mm 5 mps 755 mmHg 82%
    08:00 +32°C° 0 mm 5 mps 756 mmHg 79%
    09:00 +33°C° 0 mm 5 mps 756 mmHg 77%
    10:00 +35°C° 0 mm 5 mps 756 mmHg 70%
    11:00 +36°C° 0 mm 5 mps 755 mmHg 63%
    12:00 +39°C° 0 mm 5 mps 755 mmHg 55%
    13:00 +39°C° 0 mm 5 mps 755 mmHg 57%
    14:00 +37°C° 0 mm 5 mps 754 mmHg 58%
    15:00 +37°C° 0 mm 5 mps 754 mmHg 59%
    16:00 +36°C° 0.1 mm 5 mps 754 mmHg 64%
    17:00 +35°C° 0.1 mm 5 mps 754 mmHg 69%
    18:00 +34°C° 0.1 mm 5 mps 754 mmHg 74%
    19:00 +33°C° 0 mm 5 mps 755 mmHg 76%
    20:00 +33°C° 0 mm 5 mps 755 mmHg 79%
    21:00 +32°C° 0 mm 5 mps 755 mmHg 81%
    22:00 +32°C° 0.5 mm 4 mps 756 mmHg 83%
    23:00 +32°C° 0.5 mm 4 mps 756 mmHg 86%

    Day after tomorrow, 19 December, Wednesday

    Time Temperature Precipitation Wind Pressure Humidity
    00:00 +30°C° 0.5 mm 4 mps 756 mmHg 88%
    01:00 +30°C° 0.1 mm 4 mps 756 mmHg 88%
    02:00 +30°C° 0.1 mm 4 mps 755 mmHg 89%
    03:00 +30°C° 0.1 mm 4 mps 755 mmHg 89%
    04:00 +30°C° 0.1 mm 4 mps 755 mmHg 89%
    05:00 +30°C° 0.1 mm 4 mps 755 mmHg 89%
    06:00 +30°C° 0.1 mm 4 mps 756 mmHg 89%
    07:00 +32°C° 0.2 mm 4 mps 756 mmHg 83%
    08:00 +33°C° 0.2 mm 5 mps 756 mmHg 77%
    09:00 +34°C° 0.2 mm 5 mps 757 mmHg 71%
    10:00 +36°C° 0 mm 5 mps 756 mmHg 65%
    11:00 +38°C° 0 mm 6 mps 756 mmHg 60%
    12:00 +39°C° 0 mm 6 mps 756 mmHg 54%
    13:00 +39°C° 0 mm 6 mps 755 mmHg 52%
    14:00 +40°C° 0 mm 6 mps 754 mmHg 50%
    15:00 +40°C° 0 mm 6 mps 754 mmHg 48%
    16:00 +38°C° 0 mm 6 mps 754 mmHg 54%
    17:00 +36°C° 0 mm 6 mps 754 mmHg 60%
    18:00 +35°C° 0 mm 5 mps 754 mmHg 66%
    19:00 +34°C° 0 mm 5 mps 755 mmHg 71%
    20:00 +33°C° 0 mm 5 mps 755 mmHg 75%
    21:00 +32°C° 0 mm 4 mps 756 mmHg 79%
    22:00 +32°C° 0 mm 4 mps 755 mmHg 81%
    23:00 +32°C° 0 mm 4 mps 755 mmHg 82%

    20 December, Thursday

    Time Temperature Precipitation Wind Pressure Humidity
    00:00 +32°C° 0 mm 5 mps 755 mmHg 83%
    01:00 +32°C° 0 mm 4 mps 755 mmHg 83%
    02:00 +32°C° 0 mm 4 mps 754 mmHg 84%
    03:00 +32°C° 0 mm 4 mps 754 mmHg 84%
    04:00 +30°C° 0 mm 4 mps 754 mmHg 84%
    05:00 +30°C° 0 mm 4 mps 755 mmHg 83%
    06:00 +30°C° 0 mm 3 mps 755 mmHg 83%
    07:00 +33°C° 0 mm 4 mps 755 mmHg 77%
    08:00 +34°C° 0 mm 4 mps 755 mmHg 71%
    09:00 +35°C° 0 mm 4 mps 756 mmHg 65%
    10:00 +36°C° 0 mm 4 mps 755 mmHg 60%
    11:00 +39°C° 0 mm 5 mps 755 mmHg 55%
    12:00 +40°C° 0 mm 5 mps 754 mmHg 50%
    13:00 +40°C° 0 mm 6 mps 753 mmHg 51%
    14:00 +39°C° 0 mm 6 mps 753 mmHg 52%
    15:00 +39°C° 0 mm 6 mps 752 mmHg 52%
    16:00 +38°C° 0.8 mm 6 mps 752 mmHg 60%
    17:00 +35°C° 0.8 mm 5 mps 752 mmHg 68%
    18:00 +34°C° 0.8 mm 5 mps 752 mmHg 76%
    19:00 +33°C° 1.2 mm 4 mps 753 mmHg 78%
    20:00 +32°C° 1.2 mm 4 mps 754 mmHg 81%
    21:00 +31°C° 1.2 mm 3 mps 754 mmHg 84%
    22:00 +32°C° 0.4 mm 4 mps 754 mmHg 85%
    23:00 +32°C° 0.4 mm 4 mps 754 mmHg 86%

    21 December, Friday

    Time Temperature Precipitation Wind Pressure Humidity
    00:00 +32°C° 0.4 mm 4 mps 754 mmHg 87%
    01:00 +30°C° 1.7 mm 4 mps 753 mmHg 88%
    02:00 +30°C° 1.7 mm 4 mps 753 mmHg 88%
    03:00 +30°C° 1.7 mm 4 mps 752 mmHg 88%
    04:00 +30°C° 0.7 mm 3 mps 753 mmHg 88%
    05:00 +30°C° 0.7 mm 3 mps 753 mmHg 87%
    06:00 +30°C° 0.7 mm 3 mps 753 mmHg 87%
    07:00 +31°C° 0.9 mm 2 mps 754 mmHg 80%
    08:00 +32°C° 0.9 mm 2 mps 754 mmHg 74%
    09:00 +32°C° 0.9 mm 1 mps 755 mmHg 68%
    10:00 +34°C° 0.1 mm 1 mps 755 mmHg 63%
    11:00 +36°C° 0.1 mm 2 mps 754 mmHg 58%
    12:00 +37°C° 0.1 mm 2 mps 754 mmHg 54%
    13:00 +37°C° 0.3 mm 2 mps 753 mmHg 54%
    14:00 +37°C° 0.3 mm 2 mps 753 mmHg 54%
    15:00 +37°C° 0.3 mm 2 mps 752 mmHg 55%
    16:00 +36°C° 0.3 mm 2 mps 753 mmHg 58%
    17:00 +34°C° 0.3 mm 1 mps 753 mmHg 61%
    18:00 +33°C° 0.3 mm 1 mps 753 mmHg 64%
    19:00 +33°C° 0 mm 1 mps 754 mmHg 67%
    20:00 +32°C° 0 mm 1 mps 754 mmHg 69%
    21:00 +31°C° 0 mm 1 mps 755 mmHg 72%
    22:00 +31°C° 0 mm 1 mps 755 mmHg 73%
    23:00 +31°C° 0 mm 2 mps 755 mmHg 74%

    22 December, Saturday

    Time Temperature Precipitation Wind Pressure Humidity
    00:00 +30°C° 0 mm 2 mps 754 mmHg 76%
    01:00 +30°C° 0 mm 2 mps 754 mmHg 77%
    02:00 +30°C° 0 mm 2 mps 754 mmHg 79%
    03:00 +30°C° 0 mm 3 mps 753 mmHg 80%
    04:00 +30°C° 0.1 mm 3 mps 754 mmHg 81%
    05:00 +30°C° 0.1 mm 3 mps 754 mmHg 81%
    06:00 +29°C° 0.1 mm 3 mps 754 mmHg 82%
    07:00 +31°C° 0 mm 3 mps 755 mmHg 76%
    08:00 +33°C° 0 mm 3 mps 755 mmHg 70%
    09:00 +35°C° 0 mm 3 mps 756 mmHg 64%
    10:00 +35°C° 0 mm 3 mps 755 mmHg 61%
    11:00 +36°C° 0 mm 3 mps 755 mmHg 58%
    12:00 +36°C° 0 mm 3 mps 754 mmHg 55%
    13:00 +36°C° 0.9 mm 3 mps 754 mmHg 56%
    14:00 +36°C° 0.9 mm 3 mps 753 mmHg 58%
    15:00 +36°C° 0.9 mm 3 mps 753 mmHg 59%
    16:00 +34°C° 1.5 mm 3 mps 753 mmHg 67%
    17:00 +33°C° 1.5 mm 3 mps 754 mmHg 75%
    18:00 +30°C° 1.5 mm 2 mps 754 mmHg 82%
    19:00 +30°C° 0.4 mm 3 mps 755 mmHg 84%
    20:00 +30°C° 0.4 mm 3 mps 755 mmHg 85%
    21:00 +29°C° 0.4 mm 4 mps 755 mmHg 87%
    22:00 +29°C° 0.1 mm 3 mps 755 mmHg 87%
    23:00 +29°C° 0.1 mm 2 mps 755 mmHg 88%
    Show more